This is the latest recevied weather packets stored in our database for station/object K6HFP. If no packets are shown the sender has not sent any weather packets the latest 10 day(s).
| Time | Temp. | Humidity | Pressure | Rain* | Wind** | Luminosity | Snow |
|---|---|---|---|---|---|---|---|
| 1777721678 | 16.67° C | 59% | 1009.5 hPa | 0 mm | - | 0 W/m² | - |
| 1777721377 | 16.67° C | 60% | 1009.9 hPa | 0 mm | - | 0 W/m² | - |
| 1777721074 | 16.67° C | 60% | 1009.8 hPa | 0 mm | - | 0 W/m² | - |
| 1777720771 | 16.67° C | 61% | 1009.8 hPa | 0 mm | - | 0 W/m² | - |
| 1777720468 | 17.22° C | 60% | 1009.9 hPa | 0 mm | - | 0 W/m² | - |
| 1777720166 | 17.78° C | 57% | 1009.9 hPa | 0 mm | - | 0 W/m² | - |
| 1777719863 | 17.78° C | 55% | 1009.7 hPa | 0 mm | - | 0 W/m² | - |
| 1777719560 | 17.78° C | 55% | 1009.8 hPa | 0 mm | - | 0 W/m² | - |
| 1777719257 | 17.78° C | 56% | 1009.8 hPa | 0 mm | - | 0 W/m² | - |
| 1777718956 | 17.78° C | 56% | 1009.7 hPa | 0 mm | - | 0 W/m² | - |
| 1777718652 | 17.78° C | 57% | 1009.5 hPa | 0 mm | - | 0 W/m² | - |
| 1777718350 | 17.78° C | 58% | 1009.7 hPa | 0 mm | - | 0 W/m² | - |
| 1777718048 | 17.78° C | 57% | 1009.7 hPa | 0 mm | - | 0 W/m² | - |
| 1777717744 | 17.78° C | 57% | 1009.8 hPa | 0 mm | - | 0 W/m² | - |
| 1777717440 | 17.78° C | 58% | 1009.7 hPa | 0 mm | - | 0 W/m² | - |
| 1777717138 | 17.22° C | 58% | 1009.8 hPa | 0 mm | - | 0 W/m² | - |
| 1777716836 | 17.22° C | 59% | 1009.8 hPa | 0 mm | - | 0 W/m² | - |
| 1777716534 | 17.22° C | 60% | 1009.8 hPa | 0 mm | - | 0 W/m² | - |
| 1777716233 | 17.22° C | 60% | 1009.9 hPa | 0 mm | - | 0 W/m² | - |
| 1777715930 | 17.22° C | 59% | 1009.9 hPa | 0 mm | - | 0 W/m² | - |
| 1777715628 | 17.78° C | 58% | 1009.8 hPa | 0 mm | - | 0 W/m² | - |
| 1777715326 | 17.78° C | 57% | 1009.9 hPa | 0 mm | - | 0 W/m² | - |
| 1777715023 | 17.78° C | 58% | 1010 hPa | 0 mm | - | 0 W/m² | - |
| 1777714720 | 17.78° C | 58% | 1010 hPa | 0 mm | - | 0 W/m² | - |
| 1777714419 | 17.78° C | 60% | 1009.9 hPa | 0 mm | - | 0 W/m² | - |
* Rain latest hour (hover to see other rain measurements)
** Current wind speed in m/s (hover to see current wind gust speed)